Wind_Speed
65 70 72 68 68 73 78 76 76 72 70 74 69 66 65 62 60 60 66 73 71 69 69 71 68 67 62 58 54 47 40 35 36 36 34 33 33 35 37 39 36 33 35 33
51 56 58 60 66 70 72 77 76 76 72 74 75 74 73 70 63 62 64 68 73 75 73 70 73 69 65 62 58 54 48 45 41 38 34 34 35 40 42 43 47 41 40 38
51 46 45 49 53 59 70 75 74 76 72 72 76 81 78 73 70 67 66 67 68 73 75 78 78 76 72 70 63 59 52 45 41 45 46 45 46 44 44 43 41 47 42 43
49 40 40 47 53 47 52 53 66 76 78 75 68 81 81 80 75 73 70 69 68 67 69 74 78 78 72 70 64 58 54 47 46 46 46 48 46 48 47 42 37 41 45 43
43 45 43 45 43 44 46 40 42 48 59 68 65 70 76 81 82 76 73 71 70 70 69 69 73 75 73 70 65 58 56 52 49 48 45 46 46 47 49 43 43 44 53 44
48 47 40 42 38 23 24 30 40 41 45 53 61 60 80 69 75 80 78 75 72 71 70 71 72 74 72 70 66 61 61 58 54 52 49 44 45 42 45 48 47 52 48 46
56 59 47 42 43 31 25 28 32 35 43 49 45 48 75 68 63 65 71 72 74 73 72 73 74 76 74 70 67 63 56 54 51 50 49 41 44 40 41 46 51 47 50 54
50 55 54 54 39 42 31 29 27 42 31 39 47 53 51 50 49 53 56 63 67 69 70 68 71 74 76 73 68 66 59 52 50 45 39 41 39 44 46 39 40 43 49 55
21 39 42 47 50 50 37 37 30 35 48 43 42 34 28 37 36 35 42 49 61 64 65 66 61 65 70 72 70 64 58 53 51 43 40 42 39 45 46 47 43 49 55 43
12 13 19 28 35 37 32 32 33 39 38 37 38 31 15 29 38 37 39 47 54 60 65 70 66 62 60 61 57 64 62 58 51 47 46 43 38 45 47 46 34 50 39 27
14 11 5 12 16 23 27 35 38 42 37 35 33 35 22 23 31 38 32 38 51 58 61 64 67 62 63 63 62 61 63 63 56 51 52 47 40 39 46 44 39 37 36 39
6 1 17 6 18 19 24 22 28 37 36 34 36 27 32 31 36 38 33 39 43 56 63 61 62 61 53 57 56 56 60 63 60 53 54 53 49 45 42 40 39 41 40 43
10 8 14 3 16 20 10 13 21 27 31 30 36 35 28 29 38 39 38 39 38 54 63 61 56 56 59 58 52 51 61 60 61 59 55 55 52 51 49 47 45 43 41 41
5 8 13 2 6 14 9 11 17 24 28 29 32 30 28 29 29 43 50 50 44 39 60 65 61 58 57 46 44 45 52 60 61 60 58 57 53 52 51 48 45 45 41 38
4 8 6 3 6 9 11 14 17 21 22 23 17 21 22 29 33 35 49 50 41 38 56 65 67 60 53 53 47 48 51 59 59 58 57 54 51 50 48 47 46 43 39 36
7 3 2 1 2 5 13 8 10 4 7 6 8 8 15 21 24 29 41 38 38 38 47 61 59 64 57 52 46 48 55 56 58 54 54 51 50 48 47 45 43 42 39 34
4 2 2 0 2 4 7 8 3 4 3 7 8 6 2 6 11 18 24 36 40 39 47 50 62 52 51 46 46 44 49 48 55 54 54 52 48 45 46 46 42 38 33 33
7 4 1 5 3 4 3 5 4 5 5 6 5 5 2 10 9 19 13 10 34 45 54 43 58 60 51 44 42 38 30 44 49 50 50 47 45 44 44 42 37 34 34 34
10 7 5 4 7 6 2 2 8 8 11 8 8 9 6 4 2 1 11 7 8 32 43 37 55 52 51 52 47 39 34 30 36 39 38 40 42 42 37 35 34 35 30 28
7 8 10 3 3 7 12 5 9 13 12 11 10 12 10 8 5 11 3 9 19 20 22 24 47 53 50 50 44 42 37 32 34 36 36 39 40 40 38 38 31 25 27 30
7 11 10 7 14 17 16 12 13 10 13 13 10 12 12 12 13 13 10 12 16 13 13 19 26 34 27 40 45 46 40 38 37 40 41 38 39 44 41 31 25 27 31 31
8 9 10 16 24 17 13 13 8 13 14 12 17 12 11 14 13 15 13 12 12 9 7 9 11 16 25 23 39 50 42 43 42 41 42 39 45 37 27 25 30 30 29 32
8 9 14 22 19 12 7 14 11 8 14 6 11 5 3 8 13 15 15 17 16 13 10 11 15 15 20 22 26 32 42 44 47 44 37 30 26 26 30 30 30 30 31 32
10 13 15 14 13 11 10 8 6 5 10 10 9 5 5 10 11 11 14 14 18 18 18 13 14 12 18 19 24 29 42 43 44 33 28 22 24 29 30 29 29 30 28 29
9 12 13 9 8 7 10 9 9 6 10 12 8 9 11 10 9 5 8 10 16 21 11 12 13 16 20 20 18 16 22 24 20 22 23 24 26 27 27 28 29 26 23 27
7 7 7 6 9 8 6 7 13 12 13 17 14 9 11 13 12 8 8 12 14 16 16 11 10 13 17 19 18 18 18 18 19 21 23 24 24 24 26 27 25 23 22 22
Wind_Direction
260 255 255 251 248 243 243 238 237 237 234 231 230 226 228 225 223 221 219 221 223 230 232 239 243 243 241 237 238 237 235 242 242 240 239 246 251 253 248 252 252 249 257 255
258 257 255 253 249 246 243 240 237 234 236 236 224 224 229 227 223 221 219 221 222 227 232 237 242 244 246 245 243 239 238 240 242 242 240 244 249 250 249 263 240 244 248 252
257 258 255 255 252 249 245 243 241 240 238 239 232 223 226 228 223 222 221 220 222 223 228 236 241 247 248 250 252 255 250 247 246 245 246 248 245 248 257 259 273 245 243 248
269 258 255 257 254 248 246 246 244 244 245 244 241 233 223 226 226 223 221 220 222 223 224 230 237 242 246 250 251 251 251 249 248 245 242 247 248 246 250 255 251 248 253 251
266 256 262 258 256 259 255 242 246 246 244 246 241 246 227 226 226 225 222 222 222 223 224 226 230 236 240 242 246 246 248 247 246 247 249 249 249 249 250 252 244 255 264 258
263 246 254 263 247 233 249 242 238 241 246 248 245 247 235 230 230 228 225 223 222 221 223 225 228 230 234 238 239 242 246 248 248 247 246 248 250 250 249 250 253 257 259 255
257 261 261 247 220 228 260 260 254 239 249 249 247 241 242 238 231 231 233 233 228 223 220 223 225 229 232 233 238 239 241 246 249 248 248 244 244 243 240 245 253 257 255 256
262 257 257 252 224 229 253 260 257 233 258 246 241 244 240 248 240 238 232 229 232 230 228 224 227 226 229 232 234 237 236 239 242 243 243 241 235 236 239 237 240 244 250 248
282 263 255 247 254 256 259 260 262 253 249 251 243 255 246 244 233 227 231 229 227 229 229 225 224 227 230 233 236 236 236 235 237 237 235 224 232 237 241 237 240 264 242 236
288 301 256 246 244 245 251 251 251 239 239 246 246 238 207 231 219 230 232 224 216 219 222 223 223 223 222 226 231 235 233 230 230 229 225 223 232 240 238 237 229 237 255 251
252 284 180 236 230 244 252 244 241 233 240 251 252 232 229 228 232 226 237 225 217 212 214 215 218 220 223 223 223 223 224 224 223 223 220 221 231 236 237 237 228 237 241 255
127 275 187 109 211 214 230 233 230 232 244 249 246 218 227 232 231 230 237 219 223 216 210 209 209 213 213 218 218 219 219 221 221 220 221 223 228 229 238 243 246 243 242 251
219 108 208 49 180 201 208 225 226 237 240 237 243 225 229 237 224 229 222 217 227 220 213 205 209 206 210 216 216 217 215 215 215 216 220 225 224 230 235 240 242 248 252 252
206 146 173 287 229 209 241 260 237 237 241 244 248 238 246 231 241 232 231 233 236 234 213 210 205 203 207 209 209 221 219 210 211 212 216 220 223 228 232 239 245 247 249 250
147 151 190 242 234 233 259 278 242 262 252 254 242 243 252 250 249 244 234 235 234 235 220 213 212 207 209 208 213 219 219 214 213 211 215 218 222 227 232 237 242 247 251 253
121 151 87 360 223 247 264 263 272 237 216 155 164 202 243 229 231 247 241 232 232 231 221 213 213 216 208 215 217 220 218 214 217 213 215 218 222 228 234 238 241 245 250 253
102 81 104 282 272 299 290 239 296 156 163 173 188 210 113 208 241 245 238 239 240 233 223 214 208 206 211 205 211 217 224 221 218 217 216 219 225 230 235 238 240 243 245 244
99 113 180 274 279 318 292 258 198 209 166 149 134 112 117 224 256 240 254 296 232 224 211 205 199 208 211 208 211 213 210 219 223 223 222 224 225 230 234 237 242 243 243 252
67 59 25 335 296 116 93 56 150 175 161 154 148 105 138 318 19 17 7 339 328 174 161 186 196 201 203 206 204 206 207 212 214 218 219 221 223 227 230 234 231 239 242 241
64 46 28 4 341 42 135 74 147 150 155 154 134 87 96 89 4 71 65 92 189 164 172 145 185 191 199 203 199 205 209 208 207 207 212 219 223 225 224 227 231 228 233 238
42 29 23 33 78 101 116 115 124 139 139 140 147 116 91 90 94 103 128 113 148 137 142 139 177 197 217 208 197 201 202 204 209 209 208 215 219 223 224 217 218 228 232 239
50 42 45 73 110 106 96 102 107 145 137 164 138 108 83 80 94 103 112 115 107 114 133 158 209 212 189 195 199 194 198 207 210 213 215 221 222 213 211 212 220 228 236 240
51 79 84 91 115 109 125 81 113 144 167 173 156 161 39 59 92 99 102 111 118 121 150 135 151 163 181 199 184 184 190 194 205 209 215 183 203 206 210 212 221 230 234 239
90 103 106 118 121 105 90 87 86 65 121 142 159 107 96 91 100 94 100 113 114 117 143 100 112 143 164 177 162 184 178 181 208 188 207 214 212 212 215 218 223 229 240 243
105 109 122 114 101 96 102 83 69 81 154 165 159 117 108 105 93 101 117 127 126 128 103 142 142 125 129 146 166 168 172 178 169 184 192 195 199 205 212 222 232 239 241 254
112 124 121 110 93 98 74 71 105 105 139 149 135 96 65 98 87 89 130 141 152 153 152 146 131 146 146 140 140 146 153 159 169 182 189 199 209 219 227 234 236 244 248 235
Height
5664 5664 5667 5664 5666 5669 5672 5677 5682 5691 5698 5702 5712 5719 5721 5730 5739 5749 5756 5764 5769 5774 5780 5781 5790 5799 5810 5820 5829 5839 5846 5850 5853 5857 5861 5865 5869 5872 5874 5875 5877 5878 5879 5878
5645 5648 5645 5643 5647 5650 5652 5657 5665 5674 5678 5677 5694 5699 5702 5710 5727 5735 5742 5748 5757 5767 5772 5773 5776 5786 5794 5805 5815 5825 5834 5841 5847 5850 5854 5857 5860 5862 5863 5865 5867 5869 5870 5871
5628 5639 5633 5630 5632 5634 5638 5641 5652 5652 5656 5654 5668 5676 5686 5697 5709 5717 5728 5737 5743 5754 5764 5765 5769 5774 5783 5792 5802 5811 5821 5829 5836 5841 5845 5849 5852 5854 5856 5860 5861 5860 5863 5864
5616 5621 5620 5620 5621 5623 5623 5632 5633 5637 5638 5644 5649 5654 5671 5680 5691 5700 5712 5722 5732 5741 5752 5758 5759 5765 5774 5781 5791 5799 5806 5816 5824 5830 5835 5839 5844 5847 5848 5853 5854 5852 5854 5854
5606 5606 5608 5610 5615 5612 5621 5619 5620 5625 5626 5627 5641 5639 5662 5666 5673 5686 5701 5711 5719 5729 5737 5746 5749 5756 5763 5770 5777 5787 5794 5802 5810 5817 5825 5830 5834 5837 5840 5843 5846 5846 5847 5846
5594 5594 5593 5601 5604 5606 5605 5607 5610 5612 5615 5612 5630 5631 5639 5654 5667 5675 5683 5694 5705 5715 5725 5731 5738 5742 5751 5759 5768 5775 5781 5790 5798 5803 5812 5818 5821 5827 5831 5834 5836 5838 5839 5838
5576 5576 5583 5586 5588 5593 5595 5600 5601 5604 5604 5606 5622 5616 5623 5638 5653 5662 5671 5678 5687 5697 5706 5716 5723 5730 5738 5746 5755 5764 5773 5780 5787 5794 5802 5808 5811 5815 5818 5822 5825 5826 5827 5827
5559 5563 5567 5574 5576 5583 5585 5590 5593 5595 5598 5602 5605 5600 5619 5632 5639 5642 5653 5663 5672 5680 5693 5704 5712 5720 5727 5735 5744 5751 5762 5770 5776 5784 5792 5798 5803 5805 5808 5810 5813 5815 5815 5813
5547 5547 5551 5560 5563 5571 5579 5581 5590 5589 5590 5592 5597 5605 5615 5615 5624 5630 5636 5648 5660 5668 5674 5687 5699 5707 5718 5726 5734 5744 5754 5760 5766 5774 5781 5787 5791 5795 5797 5800 5802 5804 5777 5792
5541 5539 5542 5550 5559 5565 5570 5575 5577 5579 5583 5586 5593 5600 5606 5606 5612 5618 5625 5631 5641 5651 5663 5674 5682 5694 5704 5715 5726 5734 5742 5750 5757 5764 5772 5778 5782 5783 5788 5790 5795 5794 5785 5790
5537 5538 5545 5547 5550 5557 5562 5565 5569 5574 5578 5581 5585 5593 5598 5600 5605 5610 5615 5621 5629 5637 5648 5662 5672 5680 5692 5700 5710 5719 5728 5738 5746 5753 5762 5766 5771 5775 5777 5778 5780 5784 5784 5783
5535 5538 5542 5545 5549 5554 5559 5561 5564 5568 5574 5576 5578 5586 5590 5594 5598 5604 5608 5612 5617 5625 5635 5647 5658 5667 5679 5689 5697 5706 5715 5724 5736 5744 5752 5756 5761 5766 5769 5771 5773 5777 5779 5781
5536 5539 5542 5546 5552 5555 5556 5558 5560 5563 5565 5569 5570 5579 5583 5587 5591 5596 5599 5602 5608 5614 5625 5634 5647 5657 5668 5676 5686 5694 5703 5711 5722 5731 5738 5744 5752 5758 5762 5764 5767 5770 5773 5775
5538 5538 5544 5548 5549 5552 5555 5555 5557 5558 5561 5565 5565 5571 5576 5579 5582 5585 5588 5594 5600 5606 5613 5623 5634 5645 5656 5667 5677 5684 5692 5702 5710 5719 5723 5734 5742 5747 5752 5756 5759 5761 5765 5768
5540 5543 5546 5548 5550 5552 5552 5553 5554 5555 5556 5558 5562 5565 5567 5572 5576 5579 5581 5587 5594 5598 5606 5612 5624 5635 5645 5656 5666 5674 5684 5693 5697 5706 5715 5723 5731 5738 5744 5747 5750 5753 5758 5760
5544 5546 5547 5548 5549 5550 5551 5551 5550 5553 5554 5555 5556 5562 5564 5566 5570 5573 5577 5582 5584 5589 5597 5607 5617 5630 5641 5651 5661 5669 5677 5682 5689 5698 5707 5715 5722 5729 5733 5738 5742 5747 5750 5754
5547 5547 5548 5548 5548 5549 5549 5548 5549 5551 5552 5555 5557 5560 5559 5560 5564 5569 5574 5574 5577 5581 5586 5595 5608 5621 5634 5644 5655 5664 5671 5676 5682 5691 5698 5706 5714 5721 5725 5729 5735 5740 5745 5747
5549 5549 5549 5549 5548 5548 5547 5547 5550 5550 5553 5554 5555 5558 5559 5562 5564 5566 5568 5566 5568 5569 5573 5587 5603 5618 5632 5642 5651 5659 5663 5670 5678 5686 5692 5700 5708 5713 5717 5722 5728 5733 5737 5740
5551 5551 5550 5549 5547 5549 5549 5549 5549 5552 5555 5557 5559 5559 5560 5563 5565 5566 5564 5564 5559 5567 5571 5579 5601 5616 5627 5636 5644 5651 5657 5664 5671 5679 5687 5695 5700 5705 5711 5717 5722 5725 5730 5734
5553 5551 5551 5548 5546 5546 5550 5551 5551 5553 5557 5559 5560 5562 5563 5566 5565 5565 5566 5567 5570 5575 5585 5578 5596 5606 5616 5628 5636 5644 5653 5662 5669 5676 5683 5690 5695 5700 5705 5709 5714 5720 5725 5727
5554 5552 5551 5549 5549 5550 5552 5552 5555 5558 5563 5562 5565 5567 5568 5567 5567 5568 5570 5570 5576 5581 5586 5592 5601 5608 5614 5621 5630 5640 5649 5657 5663 5669 5676 5683 5689 5693 5698 5703 5710 5716 5718 5722
5555 5554 5551 5551 5553 5555 5558 5560 5561 5562 5563 5562 5566 5571 5572 5572 5573 5572 5574 5577 5578 5581 5585 5592 5596 5601 5606 5613 5615 5628 5638 5650 5657 5665 5673 5677 5681 5685 5692 5699 5705 5710 5713 5716
5559 5557 5556 5557 5558 5559 5560 5561 5564 5564 5565 5567 5571 5574 5575 5576 5578 5579 5579 5582 5585 5588 5590 5593 5595 5602 5607 5612 5614 5625 5628 5643 5653 5661 5665 5663 5674 5681 5689 5695 5701 5704 5707 5709
5561 5560 5561 5562 5563 5563 5564 5565 5565 5566 5568 5571 5573 5576 5577 5578 5579 5583 5583 5587 5590 5590 5594 5597 5601 5602 5607 5613 5618 5625 5626 5638 5648 5648 5661 5666 5673 5680 5686 5691 5695 5698 5701 5702
5564 5565 5565 5566 5567 5567 5567 5567 5567 5569 5570 5574 5576 5579 5580 5581 5583 5584 5586 5589 5593 5596 5601 5603 5606 5610 5612 5616 5620 5625 5629 5639 5641 5651 5658 5665 5672 5678 5682 5685 5688 5691 5693 5694
5567 5566 5567 5568 5569 5569 5570 5571 5572 5573 5575 5578 5579 5581 5581 5583 5587 5590 5592 5593 5597 5598 5601 5604 5608 5612 5617 5621 5626 5631 5635 5640 5646 5653 5658 5664 5669 5672 5674 5678 5681 5683 5686 5688